Location: Andrest
(43.3200°N, 0.0641°E)
Time: 14:57:18
(UTC+00:00)

Cosmos 2341 Rocket - Visible Passes

Search period start: 20 April 2021 00:00
Search period end: 30 April 2021 00:00
Orbit: 968 x 1004 km, 82.9° (Epoch: 19 April)

Date Brightness Start Highest point End Pass type
(mag) Time Alt. Az. Time Alt. Az. Time Alt. Az.
20 Apr 4.3 01:30:11 10° NNW 01:35:29 56° NW 01:35:29 56° NW visible
21 Apr 5.0 00:13:28 10° N 00:19:01 40° ENE 00:19:01 40° ENE visible
21 Apr 5.0 01:59:18 10° NNW 02:03:55 32° WNW 02:03:55 32° WNW visible
21 Apr 6.3 22:59:07 10° NE 23:01:28 12° ENE 23:02:34 12° ENE visible
22 Apr 4.3 00:41:53 10° N 00:47:28 65° NNE 00:47:28 65° NNE visible
22 Apr 5.7 02:29:06 10° NW 02:32:21 17° WNW 02:32:21 17° WNW visible
22 Apr 5.7 23:25:54 10° NNE 23:30:48 23° ENE 23:31:02 23° ENE visible
23 Apr 4.4 01:10:38 10° NNW 01:15:55 55° NW 01:15:55 55° NW visible
23 Apr 4.9 23:53:54 10° N 23:59:29 40° ENE 23:59:29 40° ENE visible
24 Apr 5.1 01:39:46 10° NNW 01:44:23 31° WNW 01:44:23 31° WNW visible
24 Apr 6.2 22:39:27 10° NE 22:41:57 12° ENE 22:43:04 12° ENE visible
25 Apr 4.2 00:22:19 10° N 00:27:57 67° NNE 00:27:57 67° NNE visible
25 Apr 5.7 02:09:35 10° NW 02:12:51 17° WNW 02:12:51 17° WNW visible
25 Apr 5.6 23:06:19 10° NNE 23:11:16 23° ENE 23:11:33 23° ENE visible
26 Apr 4.4 00:51:05 10° NNW 00:56:27 55° WNW 00:56:27 55° WNW visible
26 Apr 4.8 23:34:19 10° N 23:40:03 41° ENE 23:40:03 41° ENE visible
27 Apr 5.1 01:20:14 10° NNW 01:24:56 31° WNW 01:24:56 31° WNW visible
27 Apr 6.1 22:19:47 10° NE 22:22:26 13° ENE 22:23:39 12° ENE visible
28 Apr 4.2 00:02:45 10° N 00:08:33 70° NNE 00:08:33 70° NNE visible
28 Apr 5.8 01:50:05 10° NW 01:53:26 17° WNW 01:53:26 17° WNW visible
28 Apr 5.5 22:46:44 10° NNE 22:51:44 24° ENE 22:52:10 23° ENE visible
29 Apr 4.4 00:31:33 10° NNW 00:37:04 56° WNW 00:37:04 56° WNW visible
29 Apr 4.7 23:14:45 10° N 23:20:41 42° ENE 23:20:41 42° ENE visible
